Retour au catalogue

LANDSAT 3

ActifScienceSSO
NORAD 10702·PAYLOAD·🇺🇸 United States

Lancé Mar 5, 1978 depuis Vandenberg Space Force Base

Loading…

Prochains Passages (prochaines 24 heures)

TLE

FraisSource: Space-Track

Époque: Sep 14, 2026, 08:14 UTC

1 10702U 78026A   26257.34342731  .00000195  00000-0  17126-3 0  9997
2 10702  99.0779 211.3595 0013527 260.4676 262.0602 13.97006439473923

Suivez LANDSAT 3 en temps réel avec AllMySat

Download on the App Store